This is the latest recevied weather packets stored in our database for station/object KO4ZGL-13. If no packets are shown the sender has not sent any weather packets the latest 10 day(s).
| Time | Temp. | Humidity | Pressure | Rain* | Wind** | Luminosity | Snow |
|---|---|---|---|---|---|---|---|
| 1788111672 | 30° C | 87% | 1021.3 hPa | 0 mm | - | 322 W/m² | - |
| 1788111367 | 29.44° C | 88% | 1021.3 hPa | 0 mm | - | 304 W/m² | - |
| 1788111061 | 29.44° C | 89% | 1021.3 hPa | 0 mm | - | 373 W/m² | - |
| 1788110753 | 29.44° C | 90% | 1021.3 hPa | 0 mm | - | 354 W/m² | - |
| 1788110449 | 28.89° C | 90% | 1021.6 hPa | 0 mm | - | 311 W/m² | - |
| 1788110144 | 28.89° C | 90% | 1021.4 hPa | 0 mm | - | 309 W/m² | - |
| 1788109839 | 28.89° C | 90% | 1021.2 hPa | 0 mm | - | 306 W/m² | - |
| 1788109539 | 28.89° C | 90% | 1021.5 hPa | 0 mm | - | 278 W/m² | - |
| 1788109238 | 28.33° C | 91% | 1021.4 hPa | 0 mm | - | 246 W/m² | - |
| 1788108933 | 28.33° C | 92% | 1021.6 hPa | 0 mm | - | 228 W/m² | - |
| 1788108629 | 28.33° C | 92% | 1021.8 hPa | 0 mm | - | 207 W/m² | - |
| 1788108325 | 28.33° C | 92% | 1021.9 hPa | 0 mm | - | 192 W/m² | - |
| 1788108021 | 28.33° C | 92% | 1022.1 hPa | 0 mm | - | 180 W/m² | - |
| 1788107718 | 28.33° C | 92% | 1022 hPa | 0 mm | - | 176 W/m² | - |
| 1788107416 | 28.33° C | 91% | 1022.2 hPa | 0 mm | - | 180 W/m² | - |
| 1788107112 | 28.33° C | 91% | 1022.3 hPa | 0 mm | - | 189 W/m² | - |
| 1788106807 | 28.89° C | 90% | 1022.3 hPa | 0 mm | - | 201 W/m² | - |
| 1788106501 | 28.89° C | 90% | 1022.4 hPa | 0 mm | - | 209 W/m² | - |
| 1788106196 | 28.89° C | 89% | 1022.4 hPa | 0 mm | - | 230 W/m² | - |
| 1788105893 | 29.44° C | 89% | 1022.5 hPa | 0 mm | - | 249 W/m² | - |
| 1788105587 | 29.44° C | 88% | 1022.4 hPa | 0 mm | - | 287 W/m² | - |
| 1788105284 | 28.89° C | 89% | 1022.6 hPa | 0 mm | - | 323 W/m² | - |
| 1788104978 | 28.33° C | 87% | 1022.7 hPa | 0 mm | - | 384 W/m² | - |
| 1788104674 | 28.33° C | 88% | 1022.5 hPa | 0 mm | - | 397 W/m² | - |
| 1788104370 | 28.89° C | 90% | 1022.6 hPa | 0 mm | - | 324 W/m² | - |
* Rain latest hour (hover to see other rain measurements)
** Current wind speed in m/s (hover to see current wind gust speed)